Temp
-2 -2 -3 -3 -4 -4 -5 -5 -5 -5 -5 -5 -5 -5 -6 -6 -6 -7 -8 -8 -8 -8 -9 -9 -9 -9 -9 -8 -8 -8 -8 -8 -8 -8 -8 -8 -8 -7 -7 -7 -7 -6 -6
-2 -3 -3 -4 -4 -4 -5 -5 -5 -5 -5 -5 -6 -6 -6 -7 -7 -8 -8 -8 -9 -9 -10 -9 -9 -9 -9 -9 -8 -8 -8 -8 -8 -8 -8 -8 -8 -8 -7 -7 -7 -7 -6
-2 -3 -3 -4 -4 -5 -5 -5 -5 -5 -5 -6 -6 -6 -7 -7 -7 -8 -9 -10 -10 -10 -10 -10 -10 -9 -9 -9 -8 -8 -8 -8 -8 -8 -9 -9 -8 -8 -8 -8 -7 -7 -6
-3 -3 -4 -4 -5 -5 -5 -4 -4 -5 -5 -5 -6 -6 -7 -7 -8 -10 -10 -10 -10 -10 -9 -9 -9 -9 -9 -9 -9 -8 -8 -8 -8 -9 -9 -9 -9 -7 -8 -8 -7 -7 -6
-3 -3 -4 -4 -5 -5 -5 -4 -5 -5 -5 -6 -6 -6 -7 -7 -9 -11 -10 -10 -10 -9 -9 -9 -9 -9 -9 -9 -9 -8 -8 -9 -9 -9 -9 -9 -9 -9 -8 -7 -8 -7 -6
-3 -4 -4 -4 -5 -5 -5 -5 -5 -5 -5 -6 -6 -7 -7 -7 -9 -10 -10 -10 -9 -9 -9 -9 -9 -9 -8 -8 -8 -8 -8 -8 -8 -9 -9 -9 -8 -8 -8 -8 -8 -7 -7
-3 -4 -4 -4 -5 -5 -5 -5 -5 -6 -6 -6 -6 -6 -7 -7 -10 -10 -10 -9 -9 -9 -10 -9 -9 -9 -8 -8 -8 -7 -7 -7 -8 -8 -8 -8 -8 -8 -7 -8 -8 -8 -7
-4 -4 -4 -4 -5 -5 -5 -5 -6 -6 -6 -7 -6 -7 -7 -8 -10 -10 -10 -9 -9 -9 -9 -9 -9 -9 -8 -8 -8 -7 -7 -7 -7 -7 -7 -7 -7 -7 -7 -7 -7 -8 -7
-4 -4 -4 -4 -5 -5 -5 -6 -6 -6 -6 -6 -6 -7 -7 -8 -11 -10 -11 -9 -9 -9 -9 -9 -9 -9 -9 -8 -8 -7 -6 -6 -6 -6 -7 -7 -7 -7 -8 -8 -8 -8 -8
-4 -4 -4 -4 -5 -5 -6 -6 -6 -6 -6 -6 -6 -7 -7 -8 -9 -11 -11 -10 -9 -9 -9 -9 -9 -9 -8 -8 -8 -7 -7 -6 -7 -6 -7 -8 -8 -7 -7 -8 -8 -8 -8
-4 -4 -4 -5 -5 -5 -6 -6 -6 -6 -5 -5 -6 -7 -7 -8 -8 -8 -10 -10 -10 -9 -9 -9 -9 -9 -8 -8 -8 -7 -7 -7 -7 -7 -7 -7 -8 -7 -7 -8 -8 -8 -8
-4 -4 -4 -5 -5 -5 -6 -6 -6 -5 -5 -6 -6 -6 -7 -7 -8 -8 -8 -9 -9 -9 -9 -9 -9 -8 -8 -8 -8 -7 -7 -7 -7 -6 -7 -7 -7 -7 -7 -8 -8 -7 -7
-4 -4 -4 -5 -5 -5 -5 -6 -6 -6 -6 -7 -7 -7 -7 -8 -7 -8 -8 -8 -9 -8 -9 -8 -8 -8 -8 -7 -7 -7 -7 -7 -7 -7 -7 -6 -7 -7 -6 -7 -7 -8 -7
-4 -4 -4 -5 -5 -5 -5 -6 -7 -7 -7 -8 -8 -8 -8 -8 -8 -9 -9 -8 -9 -8 -8 -8 -8 -8 -8 -8 -7 -7 -7 -7 -7 -7 -6 -6 -6 -6 -6 -6 -6 -7 -7
-4 -4 -4 -5 -5 -5 -6 -6 -7 -8 -10 -10 -9 -9 -9 -9 -10 -9 -9 -9 -8 -8 -8 -8 -8 -7 -8 -8 -7 -8 -7 -7 -7 -7 -6 -6 -6 -6 -6 -5 -5 -6 -6
-4 -4 -5 -5 -5 -5 -5 -6 -7 -7 -8 -8 -8 -8 -8 -8 -7 -7 -7 -8 -7 -7 -8 -8 -9 -9 -9 -9 -9 -8 -8 -8 -7 -7 -7 -6 -6 -6 -5 -5 -5 -5 -5
-4 -5 -5 -5 -6 -6 -5 -5 -5 -6 -7 -7 -7 -7 -8 -7 -7 -7 -7 -7 -7 -7 -8 -9 -10 -9 -9 -8 -8 -8 -8 -8 -8 -7 -7 -6 -6 -6 -6 -6 -5 -5 -5
-4 -5 -5 -6 -6 -6 -6 -6 -6 -6 -6 -6 -7 -7 -7 -7 -7 -7 -6 -6 -6 -8 -9 -10 -9 -9 -9 -8 -8 -8 -8 -8 -7 -7 -7 -6 -6 -6 -6 -6 -6 -5 -5
-4 -5 -5 -5 -5 -5 -5 -6 -7 -8 -9 -8 -6 -6 -6 -7 -7 -7 -7 -8 -9 -9 -9 -9 -9 -9 -8 -8 -8 -8 -8 -7 -7 -7 -7 -6 -6 -6 -6 -6 -5 -5 -4
-4 -5 -5 -5 -5 -5 -6 -6 -7 -9 -9 -10 -8 -8 -7 -6 -6 -7 -8 -8 -9 -9 -9 -9 -8 -8 -8 -8 -8 -7 -7 -6 -6 -6 -7 -6 -6 -6 -6 -5 -5 -4 -3
-4 -4 -4 -4 -5 -5 -6 -6 -7 -8 -9 -9 -10 -9 -7 -8 -8 -8 -8 -8 -9 -9 -8 -8 -8 -8 -8 -8 -7 -7 -7 -6 -6 -6 -6 -6 -6 -5 -5 -5 -5 -4 -3
-4 -4 -4 -4 -5 -5 -6 -6 -7 -7 -8 -8 -8 -7 -7 -7 -8 -8 -8 -8 -8 -8 -8 -8 -8 -8 -8 -8 -7 -7 -7 -6 -6 -6 -5 -5 -5 -5 -5 -4 -5 -4 -3
-4 -4 -4 -4 -4 -5 -6 -5 -6 -7 -7 -7 -7 -7 -7 -7 -7 -8 -8 -8 -8 -8 -8 -8 -8 -8 -8 -7 -7 -7 -7 -6 -6 -6 -5 -5 -5 -5 -4 -3 -3 -3 -3
-3 -3 -3 -4 -5 -5 -5 -6 -6 -6 -6 -7 -7 -7 -7 -7 -7 -7 -7 -7 -7 -7 -7 -8 -8 -8 -7 -7 -7 -7 -6 -6 -5 -5 -5 -5 -5 -4 -4 -3 -3 -2 -2
-3 -3 -3 -4 -4 -5 -5 -6 -6 -6 -6 -6 -6 -7 -7 -7 -7 -7 -7 -7 -6 -6 -7 -7 -7 -7 -7 -7 -7 -7 -6 -5 -5 -5 -4 -4 -4 -4 -4 -4 -4 -3 -2
-3 -3 -3 -4 -4 -5 -5 -6 -6 -6 -6 -6 -6 -6 -6 -6 -6 -6 -6 -6 -6 -6 -6 -6 -7 -7 -7 -7 -6 -6 -6 -6 -5 -4 -4 -4 -4 -4 -4 -4 -4 -4 -3
Height
1563 1559 1554 1550 1545 1540 1535 1529 1523 1518 1512 1506 1500 1494 1488 1483 1477 1472 1465 1458 1450 1442 1437 1431 1427 1425 1422 1420 1419 1417 1417 1416 1414 1412 1412 1413 1413 1413 1413 1414 1415 1415 1417
1563 1559 1554 1550 1545 1540 1534 1528 1522 1516 1509 1503 1497 1491 1485 1479 1473 1467 1459 1451 1444 1437 1431 1427 1423 1420 1417 1416 1414 1413 1411 1410 1409 1406 1406 1406 1406 1406 1406 1407 1408 1409 1410
1563 1559 1554 1549 1545 1540 1533 1526 1520 1513 1507 1500 1494 1487 1481 1475 1468 1461 1454 1447 1440 1434 1428 1423 1419 1416 1413 1411 1410 1407 1405 1404 1403 1402 1400 1400 1399 1400 1400 1400 1401 1402 1404
1563 1559 1554 1550 1545 1540 1533 1526 1518 1512 1505 1499 1492 1486 1479 1472 1464 1458 1451 1444 1437 1431 1425 1421 1416 1413 1409 1407 1404 1402 1400 1398 1397 1395 1393 1393 1393 1393 1394 1394 1395 1397 1398
1564 1559 1555 1551 1546 1540 1533 1525 1519 1512 1505 1498 1492 1485 1477 1469 1461 1456 1449 1441 1434 1428 1423 1418 1413 1410 1406 1403 1399 1396 1393 1391 1389 1388 1387 1386 1386 1387 1387 1389 1390 1391 1392
1564 1560 1556 1552 1546 1540 1533 1526 1519 1512 1505 1498 1491 1484 1475 1468 1460 1454 1447 1439 1432 1425 1419 1415 1411 1406 1402 1397 1393 1390 1387 1384 1382 1381 1379 1378 1379 1380 1382 1383 1386 1387 1388
1564 1561 1556 1552 1547 1540 1534 1527 1520 1512 1505 1498 1491 1483 1475 1467 1458 1453 1445 1437 1429 1423 1417 1412 1407 1403 1397 1392 1386 1381 1377 1375 1374 1373 1371 1371 1372 1375 1377 1379 1381 1382 1383
1565 1561 1557 1552 1547 1541 1535 1528 1521 1513 1505 1498 1491 1483 1475 1466 1458 1451 1443 1434 1427 1421 1416 1410 1405 1399 1394 1388 1382 1376 1371 1368 1367 1366 1364 1365 1366 1369 1372 1374 1377 1379 1380
1566 1562 1558 1553 1548 1542 1536 1529 1521 1514 1506 1499 1491 1484 1475 1467 1459 1452 1442 1433 1426 1420 1414 1408 1403 1397 1391 1385 1379 1372 1367 1364 1361 1359 1359 1360 1361 1364 1367 1370 1371 1374 1374
1567 1563 1559 1554 1549 1543 1537 1530 1523 1516 1508 1501 1493 1486 1477 1468 1460 1452 1443 1434 1426 1419 1413 1407 1401 1395 1389 1383 1377 1370 1365 1362 1359 1356 1356 1357 1358 1360 1363 1364 1366 1368 1370
1568 1564 1559 1555 1550 1545 1539 1531 1524 1517 1510 1501 1494 1487 1479 1471 1462 1454 1445 1435 1428 1420 1413 1405 1399 1393 1387 1381 1375 1370 1365 1361 1358 1356 1355 1355 1356 1356 1358 1359 1361 1363 1364
1569 1565 1560 1556 1551 1546 1540 1533 1526 1518 1510 1503 1495 1488 1481 1474 1466 1457 1448 1439 1431 1422 1415 1407 1400 1393 1387 1380 1374 1369 1364 1360 1357 1355 1353 1353 1352 1352 1354 1355 1356 1358 1360
1570 1566 1562 1557 1552 1546 1540 1534 1527 1520 1512 1505 1498 1491 1484 1476 1468 1461 1451 1442 1434 1425 1418 1411 1403 1395 1387 1381 1375 1369 1364 1360 1356 1353 1351 1350 1349 1349 1350 1351 1353 1355 1356
1571 1567 1563 1559 1554 1548 1542 1536 1529 1522 1515 1509 1502 1496 1489 1481 1472 1463 1454 1446 1438 1429 1421 1413 1405 1397 1389 1383 1375 1369 1365 1360 1356 1352 1349 1347 1346 1345 1345 1346 1348 1350 1352
1572 1569 1564 1560 1555 1550 1544 1538 1533 1528 1522 1515 1509 1503 1494 1486 1480 1473 1462 1451 1444 1436 1425 1416 1406 1396 1390 1383 1377 1372 1366 1361 1356 1352 1348 1345 1343 1341 1340 1340 1341 1343 1344
1574 1570 1566 1562 1558 1552 1548 1543 1537 1532 1526 1521 1515 1508 1502 1496 1488 1479 1469 1460 1452 1442 1429 1419 1411 1403 1395 1388 1382 1375 1368 1362 1357 1352 1348 1344 1340 1338 1336 1334 1335 1336 1338
1576 1572 1568 1564 1560 1555 1550 1545 1540 1536 1530 1524 1519 1513 1506 1499 1492 1483 1475 1466 1458 1446 1435 1428 1420 1412 1403 1394 1387 1380 1373 1366 1361 1355 1349 1344 1339 1335 1332 1330 1329 1330 1332
1578 1574 1570 1566 1562 1558 1553 1548 1543 1537 1532 1527 1523 1517 1511 1504 1497 1488 1480 1471 1459 1450 1443 1437 1429 1421 1412 1402 1393 1385 1377 1370 1363 1356 1350 1344 1339 1334 1331 1328 1327 1327 1328
1580 1576 1572 1569 1565 1561 1556 1551 1546 1542 1537 1532 1527 1522 1516 1510 1503 1495 1486 1476 1468 1459 1452 1445 1438 1430 1421 1409 1400 1392 1384 1376 1368 1360 1354 1347 1342 1336 1332 1329 1328 1328 1329
1581 1578 1575 1572 1568 1564 1559 1555 1550 1546 1542 1537 1531 1526 1521 1513 1505 1498 1492 1485 1478 1471 1462 1454 1446 1439 1429 1418 1407 1399 1390 1381 1373 1365 1359 1352 1346 1339 1334 1333 1330 1330 1331
1584 1581 1578 1575 1571 1567 1564 1560 1556 1552 1548 1543 1539 1534 1528 1521 1515 1508 1502 1494 1488 1481 1473 1465 1456 1447 1439 1430 1419 1409 1400 1392 1384 1375 1366 1360 1354 1347 1343 1340 1337 1335 1336
1586 1583 1581 1578 1575 1572 1569 1566 1562 1558 1554 1549 1545 1541 1535 1529 1523 1517 1511 1505 1499 1492 1485 1477 1468 1459 1451 1441 1431 1421 1414 1405 1395 1387 1379 1371 1365 1359 1353 1349 1348 1342 1341
1588 1586 1584 1581 1578 1576 1574 1571 1567 1564 1560 1556 1552 1548 1542 1537 1532 1526 1521 1515 1509 1503 1496 1488 1479 1471 1464 1456 1447 1438 1430 1421 1413 1404 1395 1387 1379 1372 1366 1361 1356 1353 1353
1591 1589 1587 1585 1583 1581 1578 1576 1573 1570 1566 1563 1559 1554 1550 1546 1540 1535 1530 1524 1519 1512 1506 1499 1492 1484 1476 1468 1460 1453 1446 1439 1431 1421 1412 1403 1395 1388 1382 1377 1374 1372 1370
1593 1591 1590 1588 1586 1585 1583 1581 1578 1575 1572 1569 1565 1561 1557 1553 1548 1543 1538 1532 1526 1520 1514 1508 1501 1494 1487 1481 1473 1466 1459 1452 1443 1435 1427 1419 1412 1404 1399 1394 1390 1387 1386
1595 1593 1592 1591 1590 1588 1587 1585 1582 1580 1577 1574 1571 1567 1563 1559 1554 1550 1545 1540 1535 1529 1523 1517 1511 1505 1498 1490 1484 1478 1470 1461 1454 1447 1439 1432 1425 1418 1413 1410 1407 1404 1402
Wind_Speed
16 20 21 21 21 23 24 23 24 24 25 26 25 27 28 25 24 28 30 35 35 32 29 22 19 16 16 16 16 16 17 19 22 26 23 20 20 20 19 19 19 22 22
19 19 21 20 22 24 25 26 26 26 27 27 27 28 27 25 27 31 33 33 33 31 26 23 20 18 17 16 15 16 18 21 22 26 22 23 20 18 21 21 20 22 23
18 20 21 20 22 27 28 27 26 28 27 26 27 28 28 29 30 32 33 33 33 27 23 20 19 17 17 15 16 15 18 16 20 24 27 24 21 16 17 18 19 20 21
18 18 20 19 22 27 31 30 28 27 27 26 26 27 30 30 27 30 32 35 31 24 21 19 18 18 17 15 21 22 21 23 23 24 24 23 21 20 18 20 19 18 19
17 18 19 18 22 27 31 30 28 29 28 26 27 28 29 30 27 28 33 33 28 24 20 19 18 16 16 16 18 21 22 22 22 25 28 29 28 23 20 16 18 15 14
15 16 17 19 23 29 31 30 30 31 30 26 28 29 30 31 28 30 32 32 26 23 22 20 18 17 17 18 18 19 20 23 26 27 27 26 24 21 16 15 15 15 16
12 16 18 20 23 28 30 30 30 33 31 27 29 30 31 33 32 33 33 30 26 23 21 20 19 20 20 21 23 23 21 19 20 24 28 28 25 20 15 15 17 18 17
14 16 19 21 23 26 28 30 31 34 30 29 30 32 32 35 33 35 34 30 27 24 20 20 20 22 20 23 22 19 17 15 15 18 24 22 20 16 16 17 16 17 19
16 17 20 21 23 25 28 31 31 34 29 28 31 33 35 36 33 34 34 31 29 26 21 20 20 21 21 19 18 17 15 11 10 15 14 14 14 15 14 14 18 20 20
18 17 20 20 22 24 27 30 30 33 28 29 32 33 36 38 36 34 33 32 30 27 24 22 19 20 19 17 17 16 15 14 10 6 7 9 10 13 14 20 21 22 21
16 17 19 19 21 24 25 28 29 32 29 32 33 35 37 38 38 36 32 31 30 27 27 27 23 20 17 16 16 15 12 10 8 6 4 5 11 18 17 18 21 22 21
16 17 18 19 21 24 25 27 29 31 32 34 35 37 38 38 38 36 34 32 28 27 28 27 25 21 19 18 17 16 11 10 6 7 7 7 9 12 17 19 20 20 21
15 17 19 19 22 24 26 26 29 31 33 34 36 37 38 39 40 37 38 36 33 30 29 28 26 26 24 21 21 19 16 15 14 11 6 6 8 8 12 13 17 19 20
14 17 20 20 22 24 24 24 26 31 33 33 34 35 36 38 40 40 40 42 40 36 34 33 33 33 31 27 26 26 24 21 20 15 10 5 6 10 13 12 17 19 21
14 17 20 20 22 23 23 23 21 23 25 27 28 29 33 36 37 36 39 43 44 41 41 40 41 41 40 37 34 33 29 27 26 21 16 9 4 8 11 14 17 18 21
16 19 21 21 22 22 22 19 18 20 22 23 24 26 28 29 32 36 39 42 44 44 49 51 48 46 45 43 40 38 35 34 32 29 24 17 9 5 4 10 14 19 21
18 19 20 21 22 23 22 22 22 19 24 24 25 26 29 31 33 37 40 43 45 49 54 54 52 49 46 44 42 41 40 39 36 33 29 25 19 13 6 4 11 15 18
18 19 20 21 21 20 20 21 23 26 27 29 28 28 30 32 34 38 41 44 50 54 55 56 55 53 50 47 45 44 43 43 41 39 35 32 29 25 19 13 10 14 17
18 19 19 18 19 20 21 22 24 26 27 29 29 30 31 33 36 38 42 48 50 53 55 56 56 56 54 51 48 47 46 45 44 43 41 39 37 33 27 21 20 17 21
17 18 18 18 19 22 23 25 26 26 28 30 33 34 35 36 40 42 44 46 48 50 52 55 55 56 57 56 54 52 51 50 48 47 46 44 43 39 36 30 27 28 26
16 16 17 17 20 21 23 27 28 29 30 31 31 32 33 36 37 39 41 43 45 47 49 51 53 56 57 58 57 56 55 53 50 49 50 48 48 47 42 40 33 30 28
14 15 16 17 19 21 24 25 27 30 31 32 32 33 35 35 37 38 39 40 42 43 46 48 50 52 54 56 58 59 56 54 54 52 52 51 51 51 49 47 44 38 34
12 13 14 16 19 21 22 24 27 29 31 31 33 35 37 38 39 40 40 41 42 43 45 46 49 50 51 52 54 55 55 55 53 52 53 53 54 54 55 52 50 47 42
11 12 13 16 17 19 22 24 25 26 28 29 30 32 34 35 36 37 38 39 41 42 44 46 47 48 50 51 52 52 52 52 53 54 54 53 54 55 56 56 55 50 46
9 10 12 14 16 19 21 22 23 24 26 27 29 29 31 32 33 35 36 38 39 41 43 44 45 47 48 49 50 50 50 51 52 53 55 55 54 55 55 55 54 53 51
7 8 11 13 16 17 18 19 21 22 23 25 26 27 28 30 32 33 35 36 37 39 40 42 43 45 46 48 49 49 50 51 52 52 53 54 55 56 55 54 53 53 51
Wind_Direction
360 358 359 359 356 354 351 348 341 339 337 334 329 329 330 330 326 325 321 322 326 328 327 322 315 307 303 301 291 280 272 269 270 282 281 281 278 274 265 261 256 252 251
357 356 358 0 359 359 354 346 343 338 336 334 331 331 334 332 330 326 328 334 337 334 332 325 321 312 303 297 295 293 291 274 266 277 284 283 279 270 266 263 258 254 253
355 354 359 4 3 359 356 350 347 341 341 339 337 337 337 336 333 335 340 340 339 336 333 328 322 313 306 300 297 289 295 287 273 273 281 283 283 271 264 260 258 252 252
354 360 4 8 5 2 1 358 356 356 351 348 346 342 340 339 338 339 344 340 340 339 338 333 328 319 311 304 298 297 293 280 274 274 275 276 277 278 270 265 256 253 258
358 7 11 9 3 2 3 3 2 2 357 353 350 349 347 349 349 348 344 341 341 339 339 338 333 328 316 305 300 297 292 285 278 272 271 273 274 270 267 252 251 251 254
1 16 10 9 3 2 4 6 5 4 1 358 357 356 356 357 355 353 348 343 344 344 343 339 335 334 330 324 312 297 284 275 273 271 271 269 268 267 258 229 236 246 255
20 16 11 8 4 1 3 5 6 5 2 3 2 2 3 3 2 352 350 349 349 349 344 341 340 341 337 332 322 310 298 281 264 263 264 265 265 257 243 220 229 232 239
21 15 9 8 4 2 3 4 4 5 7 6 8 8 8 8 5 353 352 353 356 354 347 346 345 341 341 336 327 319 314 296 274 263 258 262 257 248 238 238 237 242 246
19 7 5 4 3 3 2 3 3 4 8 11 13 12 12 10 4 357 355 357 357 355 355 351 347 345 345 343 341 340 336 329 321 264 264 253 240 222 227 242 232 227 240
13 6 1 1 2 3 360 1 3 4 9 15 18 16 16 13 9 3 359 360 359 356 0 357 352 352 352 357 360 360 348 345 338 328 245 242 228 227 233 229 233 232 236
7 3 3 5 1 1 1 0 1 6 12 19 20 20 19 16 14 11 10 7 2 2 6 6 5 4 4 8 13 13 10 340 350 331 290 244 230 228 237 228 228 226 230
0 6 9 6 2 3 3 2 3 9 16 19 20 20 20 18 18 16 18 18 12 12 14 14 14 14 16 20 25 23 18 17 356 8 321 269 250 228 221 231 230 232 233
359 8 9 6 5 5 5 6 7 13 17 18 19 18 18 18 18 19 24 23 22 24 26 24 24 26 28 29 33 32 30 32 31 31 7 307 263 236 237 231 226 232 232
5 7 6 8 8 7 8 10 10 15 17 17 17 16 17 20 18 17 22 24 25 30 31 31 31 33 35 35 36 39 40 39 34 27 15 333 281 257 244 237 228 230 231
10 9 10 9 8 12 11 12 16 21 20 14 15 18 15 18 18 24 26 28 30 30 34 33 31 31 31 32 34 36 38 38 35 35 30 19 333 272 256 244 241 234 237
13 12 12 10 11 13 16 23 23 25 26 24 22 23 26 26 28 30 32 34 33 34 38 34 32 30 28 27 27 30 33 33 32 32 32 34 32 20 263 237 233 228 230
18 13 11 10 11 15 19 25 31 42 39 31 31 30 32 29 29 32 34 37 34 36 38 37 33 30 28 28 27 28 28 32 33 35 35 36 39 46 58 151 195 203 210
16 12 11 12 14 19 24 30 30 31 32 35 37 36 36 34 32 32 32 34 34 36 36 34 34 31 29 28 28 29 31 34 35 35 35 38 40 41 50 75 127 163 176
13 14 14 16 22 25 27 32 35 33 31 30 34 39 38 39 37 36 35 35 33 32 33 34 33 32 31 29 29 31 33 34 35 37 37 39 41 43 54 73 91 119 141
17 16 19 24 29 31 34 40 41 39 38 37 37 34 34 34 36 34 34 34 34 34 33 33 32 32 32 31 30 30 33 36 37 39 39 42 46 50 54 65 80 95 111
20 21 25 30 35 40 48 52 52 50 49 45 42 39 40 37 37 36 35 35 34 34 34 34 32 31 31 32 31 33 33 35 38 41 42 43 48 51 56 64 73 82 93
23 26 30 36 48 58 58 58 56 54 53 51 49 47 45 42 41 41 40 39 38 37 37 36 35 34 32 32 31 33 33 34 37 42 46 47 50 53 55 61 67 73 78
28 31 38 53 62 64 63 62 62 59 55 54 51 48 49 47 44 43 43 42 41 41 40 39 37 37 35 36 35 34 33 36 39 41 44 50 51 54 56 58 61 64 68
36 41 56 66 66 68 68 66 61 57 56 52 50 48 46 46 45 43 41 41 41 41 41 41 41 40 38 37 36 37 36 36 40 44 48 48 51 53 56 58 60 63 66
45 56 69 68 71 72 72 67 62 58 55 53 50 48 47 46 45 45 44 42 41 41 41 39 39 38 38 39 39 37 36 37 39 41 44 49 50 54 54 57 58 58 59
58 73 73 76 79 80 74 67 61 58 54 52 50 48 46 46 44 43 43 42 42 42 41 41 40 39 38 37 36 36 36 36 37 39 41 42 45 47 52 54 56 58 59